User: anonymous   Login
Location: Columbia
(38.9520°N, 92.3340°W)
Time: 03:54:10
(UTC-06:00)
Language:

Cosmos 2100 Rocket - Orbit

View from above orbital plane
View from above orbital plane
View from above satellite
View from above satellite

Ground track
Ground track

The orbit data is extracted from the following two-line orbital elements,

1 20805U 90083B   16345.20230186  .00000109  00000-0  97241-4 0  9993
2 20805  82.9367 201.2549 0030042 199.5788 300.5461 13.75804986317417
Epoch (UTC): 10 December 2016 04:51:18
Eccentricity: 0.0030042
inclination: 82.9367°
perigee height: 957 km
apogee height: 1001 km
right ascension of ascending node: 201.2549°
argument of perigee: 199.5788°
revolutions per day: 13.75804986
mean anomaly at epoch: 300.5461°
orbit number at epoch: 31741

The dashed part of the orbit path shows where the satellite is in the earth's shadow,  

DLR